"Pseudo-MPEC" for P20SzGo

Created 2019 Oct 16 16:07:14 UT using Find_Orb

Click here for an explanation of pseudo-MPECs

 
 Astrometry: 
     P20SzGo  C2019 10 08I`3?xm[P?fF:sEP^AstrometryjUXXl2N_iMI^=rx*redacted;8F52
     P20SzGo  C2019 10 08vxMTFmT:@E%iZ2GxOegVhKtaIXSyV1MeAclickmefr?/,+V2)+QqF52
     P20SzGo  C2019 10 08a@v5'FnZE$:%i@RU;Ft[rherenj%yk)_CforTGcP6DP^XP=rU,l.F52
     P20SzGo  C2019 10 08ab.6C^h+]hw@NttO7K?[UXm+ueaexplanation'1ICsW3q]q_C.'F52

Station data:
(F52) Pan-STARRS 2, Haleakala  (N20.707384 W156.255910)  US/Hawaii. 1.8-m
   Ritchey-Chrétien + CCD.

Orbital elements:  P20SzGo
   Perihelion 2019 Jul 22.169019 +/- 67.3 TT =  4:03:23 (JD 2458686.669019)
Epoch 2019 Oct  9.0 TT = JDT 2458765.5   Earth MOID: 0.0062   AutoNEOCP
M  72.85990222 +/- 70               (J2000 ecliptic)
n   0.92425467 +/- 0.496            Peri.  261.44378 +/- 90
a   1.04377833 +/- 0.373            Node    29.20001 +/- 43
e   0.1101084 +/- 0.279             Incl.    5.51540 +/- 22
P   1.07/389.50d           H 26.3   G  0.15   U 12.3  SR
q 0.92884949 +/- 0.138    Q 1.15870717 +/- 18.4
From 4 observations 2019 Oct. 8 (47.1 min); mean residual 0".34
Residuals in arcseconds: 
191008 F52  .37+  .37-    191008 F52  .13-  .17+    
191008 F52  .50-  .48+    191008 F52  .25+  .27-    

Ephemerides (geocentric):
Date (UTC) HH   RA              Dec         delta   r     elong  mag " sig PA
---- -- -- --  -------------   -----------  ------ ------ -----  --- ---- ---
2019 10 16 16  02 34 14.367   -00 02 17.91  .04166 1.0362 160.4 20.4  46d  20
2019 10 16 17  02 33 53.740   +00 03 13.19  .04172 1.0363 160.6 20.4  46d  20
2019 10 16 18  02 33 33.164   +00 08 43.40  .04178 1.0364 160.7 20.4  46d  20
2019 10 16 19  02 33 12.640   +00 14 12.73  .04183 1.0365 160.8 20.4  46d  20
2019 10 16 20  02 32 52.167   +00 19 41.17  .04189 1.0365 161.0 20.4  47d  20
2019 10 16 21  02 32 31.745   +00 25 08.73  .04195 1.0366 161.1 20.4  47d  20
2019 10 16 22  02 32 11.375   +00 30 35.41  .04201 1.0367 161.3 20.4  47d  20
2019 10 16 23  02 31 51.056   +00 36 01.19  .04207 1.0368 161.4 20.4  47d  20
2019 10 17 00  02 31 30.788   +00 41 26.09  .04213 1.0368 161.6 20.4  47d  20
2019 10 17 01  02 31 10.571   +00 46 50.11  .04219 1.0369 161.7 20.4  47d  19
2019 10 17 02  02 30 50.405   +00 52 13.23  .04225 1.0370 161.9 20.4  47d  19
2019 10 17 03  02 30 30.289   +00 57 35.46  .04231 1.0371 162.0 20.4  47d  19
2019 10 17 04  02 30 10.225   +01 02 56.81  .04237 1.0372 162.1 20.4  47d  19
2019 10 17 05  02 29 50.211   +01 08 17.26  .04243 1.0372 162.3 20.4  47d  19
2019 10 17 06  02 29 30.248   +01 13 36.82  .04249 1.0373 162.4 20.4  47d  19
2019 10 17 07  02 29 10.336   +01 18 55.49  .04255 1.0374 162.6 20.4  47d  19
2019 10 17 08  02 28 50.474   +01 24 13.27  .04261 1.0375 162.7 20.4  47d  19
2019 10 17 09  02 28 30.663   +01 29 30.15  .04268 1.0375 162.9 20.4  47d  19
2019 10 17 10  02 28 10.901   +01 34 46.15  .04274 1.0376 163.0 20.4  47d  19
2019 10 17 11  02 27 51.190   +01 40 01.25  .04280 1.0377 163.1 20.4  47d  19
2019 10 17 12  02 27 31.530   +01 45 15.46  .04286 1.0378 163.3 20.4  47d  19
2019 10 17 13  02 27 11.919   +01 50 28.77  .04292 1.0379 163.4 20.4  47d  19
2019 10 17 14  02 26 52.358   +01 55 41.19  .04299 1.0379 163.6 20.4  47d  19
2019 10 17 15  02 26 32.848   +02 00 52.71  .04305 1.0380 163.7 20.4  47d  19
2019 10 17 16  02 26 13.387   +02 06 03.35  .04311 1.0381 163.8 20.4  47d  19
2019 10 17 17  02 25 53.976   +02 11 13.08  .04318 1.0382 164.0 20.4  47d  19
2019 10 17 18  02 25 34.614   +02 16 21.93  .04324 1.0382 164.1 20.4  48d  19
2019 10 17 19  02 25 15.302   +02 21 29.88  .04330 1.0383 164.2 20.4  48d  19
2019 10 17 20  02 24 56.040   +02 26 36.94  .04337 1.0384 164.4 20.4  48d  19
2019 10 17 21  02 24 36.827   +02 31 43.10  .04343 1.0385 164.5 20.4  48d  19
2019 10 17 22  02 24 17.664   +02 36 48.37  .04350 1.0386 164.7 20.4  48d  19
2019 10 17 23  02 23 58.549   +02 41 52.74  .04356 1.0386 164.8 20.4  48d  19
2019 10 18 00  02 23 39.484   +02 46 56.22  .04363 1.0387 164.9 20.4  48d  19
2019 10 18 01  02 23 20.468   +02 51 58.81  .04369 1.0388 165.1 20.4  48d  19
2019 10 18 02  02 23 01.501   +02 57 00.51  .04376 1.0389 165.2 20.4  48d  19
2019 10 18 03  02 22 42.583   +03 02 01.31  .04382 1.0389 165.3 20.4  48d  19
2019 10 18 04  02 22 23.714   +03 07 01.22  .04389 1.0390 165.5 20.4  48d  19
2019 10 18 05  02 22 04.894   +03 12 00.24  .04395 1.0391 165.6 20.4  48d  19
2019 10 18 06  02 21 46.122   +03 16 58.37  .04402 1.0392 165.8 20.4  48d  19
2019 10 18 07  02 21 27.399   +03 21 55.61  .04409 1.0392 165.9 20.4  48d  19
2019 10 18 08  02 21 08.724   +03 26 51.95  .04415 1.0393 166.0 20.4  48d  19
2019 10 18 09  02 20 50.098   +03 31 47.41  .04422 1.0394 166.2 20.4  48d  19
2019 10 18 10  02 20 31.520   +03 36 41.97  .04429 1.0395 166.3 20.4  48d  19
2019 10 18 11  02 20 12.991   +03 41 35.65  .04435 1.0396 166.4 20.4  48d  19
2019 10 18 12  02 19 54.509   +03 46 28.44  .04442 1.0396 166.6 20.4  48d  19
2019 10 18 13  02 19 36.076   +03 51 20.34  .04449 1.0397 166.7 20.4  48d  19
2019 10 18 14  02 19 17.691   +03 56 11.35  .04456 1.0398 166.8 20.4  48d  19
2019 10 18 15  02 18 59.353   +04 01 01.48  .04463 1.0399 167.0 20.4  48d  19